Regional Weather Roundup
Issued by NWS

Home | Current Version | Previous Version | Graphics & Text | Print | Product List | Glossary Off
Versions: 1 2 3 4 5 6 7 8 9 10 11 12 13 14 15 16 17 18 19 20 21 22 23 24 25 26 27 28 29 30 31 32 33 34 35 36 37 38 39 40 41 42 43 44 45 46 47 48 49 50

000
ASUS43 KMPX 230301
RWRMN
WEATHER ROUNDUP FOR MINNESOTA
NATIONAL WEATHER SERVICE TWIN CITIES/CHANHASSEN MN
1000 PM CDT TUE APR 22 2014


NOTE: "FAIR" INDICATES FEW OR NO CLOUDS BELOW 12,000 FEET WITH NO
SIGNIFICANT WEATHER AND/OR OBSTRUCTIONS TO VISIBILITY. N/A MEANS
CURRENT SKY AND/OR WEATHER CONDITIONS ARE NOT AVAILABLE.

MNZ060>063-068>070-230400-
   Twin Cities Metro

CITY           SKY/WX    TMP DP  RH WIND       PRES   REMARKS
TWIN CITIES    MOCLDY    51  24  34 E8        30.08R
ST PAUL        CLEAR     46  27  47 CALM      30.09R
CRYSTAL        FAIR      45  28  51 NE5       30.07R
BLAINE         CLEAR     48  27  43 CALM      30.08S
EDEN PRAIRIE   PTCLDY    50  28  42 E3        30.07R
LAKEVILLE      CLEAR     43  30  61 NE3       30.08R
SOUTH ST PAUL  CLEAR     49  30  48 CALM      30.09R
LAKE ELMO      FAIR      41  30  65 CALM      30.09S
$$
MNZ001>005-007-008-013>017-022>024-027-028-230400-
   Northwest Minnesota

CITY           SKY/WX    TMP DP  RH WIND       PRES   REMARKS
BEMIDJI        CLEAR     38  21  52 CALM      30.05R
HALLOCK        CLOUDY    46  34  61 E15       30.01R
ROSEAU         CLEAR     43  25  49 E8        30.06R
WARROAD        CLEAR     37  27  65 E6        30.06S
THIEF RVR FALL CLEAR     45  28  53 E9        30.03S
CROOKSTON      PTCLDY    48  32  53 E9        30.01S
FOSSTON        CLEAR     37  21  52 E5        30.03S
DETROIT LAKES  CLEAR     50  30  46 SE7       30.02S
MOORHEAD       PTCLDY    52  34  50 SE7       29.99S
PARK RAPIDS    CLEAR     46  24  42 E7        30.03S
$$
MNZ006-009>011-018-025>026-230400-
   North Central Minnesota

CITY           SKY/WX    TMP DP  RH WIND       PRES   REMARKS
BAUDETTE       CLEAR     39  24  55 E6        30.06R
FLAG ISLAND    CLEAR     36  19  51 CALM      30.06R
INTL FALLS     CLEAR     31  25  78 CALM      30.07R
WASKISH        CLEAR     34  27  75 CALM      30.07R
BIG FORK       CLEAR     41  19  42 E3        30.08R
LONGVILLE      CLEAR     34  27  75 CALM      30.07R
GRAND RAPIDS   CLEAR     36  19  51 S3        30.07R
CRANE LAKE     CLEAR     27  18  69 CALM      30.10R
ORR            CLEAR     37  18  44 CALM      30.06R
COOK           CLEAR     37  21  52 CALM      30.08R
$$
MNZ012-019>021-037-230400-
   Northeast Minnesota

CITY           SKY/WX    TMP DP  RH WIND       PRES   REMARKS
DULUTH         CLEAR     41  20  43 CALM      30.07R
ELY            CLEAR     30  23  74 CALM      30.08R
HIBBING        CLEAR     30  22  72 CALM      30.07R
EVELETH        CLEAR     32  23  69 CALM      30.09R
DULUTH HARBOR  CLEAR     36  27  69 CALM      30.10R
TWO HARBORS    CLEAR     30  25  80 CALM      30.07R
SILVER BAY     CLEAR     28  25  86 CALM      30.07S
GRAND MARAIS     N/A     30  26  85 NW3       30.11S
G MARAIS ARPRT CLEAR     28  19  69 CALM      30.08S
$$
MNZ029>031-032-039>041-046>048-054>057-064-230400-
   West Central Minnesota

CITY           SKY/WX    TMP DP  RH WIND       PRES   REMARKS
FERGUS FALLS   CLEAR     52  28  40 E9        29.97S
WHEATON        MOCLDY    54  37  54 E14       30.00R
MORRIS         MOCLDY    52  34  50 SE12      30.00R
ALEXANDRIA     PTCLDY    50  31  48 SE7       30.03S
ELBOW LAKE     FAIR      51  35  54 E9        30.00R
WADENA         CLEAR     46  27  46 E7        30.03S
GLENWOOD       PTCLDY    45  34  65 E8        30.03S
APPLETON       CLOUDY    54  36  50 SE10      30.00R
BENSON         MOCLDY    52  34  50 SE9       30.02R
ORTONVILLE     CLOUDY    54  36  50 SE12      29.99R
MADISON        CLOUDY    55  37  50 SE12      30.00R
WILLMAR        FAIR      52  34  50 E9        30.04S
$$
MNZ033>034-036-042>043-049>051-058-059-230400-
   Central Minnesota

CITY           SKY/WX    TMP DP  RH WIND       PRES   REMARKS
ST CLOUD       CLEAR     47  27  45 E5        30.06R
SAUK CENTRE    FAIR      46  32  58 E6        30.05R
PAYNESVILLE    PTCLDY    46  33  59 CALM      30.05S
AITKIN         CLEAR     37  27  65 CALM      30.06R
PINE RIVER     CLEAR     36  28  75 E6        30.09R
BRAINERD       CLEAR     44  26  49 CALM      30.07R
STAPLES        CLEAR     43  23  45 E3        30.05S
LONG PRAIRIE   FAIR      43  28  56 E6        30.05R
LITTLE FALLS   CLEAR     45  28  53 CALM      30.06S
LITCHFIELD     MOCLDY    48  34  57 SE5       30.06S
BUFFALO        CLEAR     45  30  57 E5        30.08R
MAPLE LAKE     PTCLDY    46  35  64 CALM      30.07S
$$
MNZ037-044-045-052-053-230400-
   East Central Minnesota

CITY           SKY/WX    TMP DP  RH WIND       PRES   REMARKS
PRINCETON      CLEAR     46  28  49 CALM      30.08S
MORA           CLEAR     36  27  69 CALM      30.10R
CAMBRIDGE      CLEAR     43  27  52 CALM      30.07S
RUSH CITY      PTCLDY    41  27  57 CALM      30.08S
MOOSE LAKE     CLEAR     36  21  55 CALM      30.06R
HINCKLEY       FAIR      37  28  70 CALM      30.09R
CLOQUET        CLEAR     37  18  44 CALM      30.08R
MCGREGOR       CLEAR     39  28  65 CALM      30.08R
$$
MNZ071>073-080-081-089-090-097-098-230400-
   Southwest Minnesota

CITY           SKY/WX    TMP DP  RH WIND       PRES   REMARKS
MONTEVIDEO     CLOUDY    54  37  54 SE14      30.02R
GRANITE FALLS  CLOUDY    53  32  45 E9        30.03R
CANBY          CLOUDY    54  38  54 E10G17    30.01R
MARSHALL       CLOUDY    55  32  41 SE15      30.00R
REDWOOD FALLS  CLOUDY    54  31  41 E9        30.02R
OLIVIA         MOCLDY    54  34  47 E10       30.02S
PIPESTONE      CLOUDY    55  34  44 SE7       29.99R
WINDOM         RAIN      54  34  47 E12       30.03R
WORTHINGTON    CLOUDY    55  30  38 SE10      30.03R
JACKSON        CLOUDY    55  32  41 E10       30.03R
TRACY          CLOUDY    56  33  42 SE16      30.01R
SLAYTON        CLOUDY    55  32  40 E12       30.02R
$$
MNZ065>067-074>077-082>085-091>093-230400-
   South Central Minnesota

CITY           SKY/WX    TMP DP  RH WIND       PRES   REMARKS
MANKATO        PTCLDY    52  30  43 E7        30.06S
NEW ULM        PTCLDY    54  30  40 E8        30.04S
ST JAMES       MOCLDY    54  32  43 E9        30.05S
FAIRMONT       CLOUDY    52  30  43 E10       30.06S
GLENCOE        PTCLDY    49  32  51 E5        30.06R
FARIBAULT      PTCLDY    50  25  37 CALM      30.08R
OWATONNA       PTCLDY    46  30  53 E5        30.08R
WASECA         PTCLDY    45  28  53 E6        30.09R
ALBERT LEA     PTCLDY    46  34  61 E5        30.07R
$$
MNZ078>079-086>088-094>096-230400-
   Southeast Minnesota

CITY           SKY/WX    TMP DP  RH WIND       PRES   REMARKS
ROCHESTER      CLEAR     46  27  47 NE6       30.08R
RED WING       PTCLDY    39  27  60 CALM      30.09R
STANTON        CLEAR     43  33  68 E5        30.07S
DODGE CENTER   PTCLDY    46  34  61 E5        30.08S
WINONA         CLEAR     45  30  57 CALM      30.09R
AUSTIN         CLEAR     46  34  61 NE3       30.07R
PRESTON        CLEAR     47  27  45 NE5       30.08S
$$
ABBREVIATIONS USED IN REMARKS
   TC - TEMPERATURES IN CELSIUS
  WCI - WIND CHILL INDEX
   HX - HEAT INDEX
  VSB - VISIBILITY
$$


USA.gov is the U.S. government's official web portal to all federal, state and local government web resources and services.